Location: Arezzo
(43.4170°N, 11.8830°E)
Time: 02:34:45
(UTC+01:00)

STARLINK-2711 - Pass Details

Date: 01 November 2021
Orbit: 545 x 549 km, 53.1° (Epoch: 30 November)

Event Time Altitude Azimuth Distance (km) Brightness Sun altitude
Exits shadow 04:47:10 35° 354° (N) 896 4.6 -22.3°
Drops below altitude 10° 04:50:31 10° 45° (NE) 1,822 6.9 -21.7°
Sets 04:52:54 0° 54° (NE) 2,718 8.0 -21.3°
